Location: Chevoux
(46.3801°N, 4.9476°E)
Time: 08:01:11
(UTC+00:00)

SeaSat 1 - Visible Passes

Search period start: 11 May 2021 00:00
Search period end: 21 May 2021 00:00
Orbit: 744 x 747 km, 108.0° (Epoch: 10 May)

Date Brightness Start Highest point End Pass type
(mag) Time Alt. Az. Time Alt. Az. Time Alt. Az.
11 May 4.3 01:25:05 10° N 01:28:51 22° NW 01:31:30 15° W visible
11 May 3.7 23:05:05 10° NE 23:08:32 27° E 23:08:32 27° E visible
12 May 3.1 00:42:17 10° NNE 00:47:01 46° NW 00:48:19 37° W visible
12 May 4.9 02:22:09 10° NNW 02:23:29 11° NW 02:24:47 10° NW visible
12 May 4.8 22:25:18 10° E 22:25:21 10° E 22:25:21 10° E visible
12 May 2.3 23:59:56 10° NNE 00:04:53 77° ESE 00:05:08 75° SSE visible
13 May 4.3 01:38:17 10° N 01:41:55 21° NW 01:44:54 13° W visible
13 May 3.6 23:18:07 10° NE 23:21:57 30° E 23:21:57 30° E visible
14 May 3.2 00:55:26 10° NNE 01:00:05 43° NW 01:01:43 32° W visible
14 May 5.0 02:35:44 10° NNW 02:36:30 10° NW 02:37:17 10° NW visible
14 May 4.7 22:37:52 10° ENE 22:38:46 11° E 22:38:46 11° E visible
15 May 2.3 00:13:01 10° NNE 00:18:00 83° ESE 00:18:33 70° S visible
15 May 4.4 01:51:28 10° N 01:54:58 20° NW 01:58:19 11° W visible
15 May 3.4 23:31:09 10° NE 23:35:22 33° ESE 23:35:22 33° ESE visible
16 May 3.4 01:08:34 10° NNE 01:13:11 40° NW 01:15:09 28° W visible
16 May 4.6 22:50:35 10° ENE 22:52:12 13° E 22:52:12 13° E visible
17 May 2.3 00:26:08 10° NNE 00:31:06 89° SE 00:31:58 62° SSW visible
17 May 4.5 02:04:40 10° N 02:08:01 19° NW 02:11:22 10° W visible
17 May 3.2 23:44:11 10° NE 23:48:45 36° ESE 23:48:48 36° ESE visible
18 May 3.5 01:21:43 10° NNE 01:26:14 37° NW 01:28:34 24° W visible
18 May 4.5 23:03:24 10° ENE 23:05:37 14° E 23:05:37 14° E visible
19 May 2.4 00:39:14 10° NNE 00:44:12 85° WNW 00:45:24 53° SW visible
19 May 4.5 02:17:52 10° N 02:21:04 18° NW 02:24:16 10° W visible
19 May 3.1 23:57:14 10° NE 00:01:53 40° ESE 00:02:13 39° ESE visible
20 May 3.6 01:34:52 10° NNE 01:39:19 35° NW 01:42:00 20° WSW visible
20 May 4.4 23:16:16 10° ENE 23:19:03 16° E 23:19:03 16° E visible
